This is the latest recevied weather packets stored in our database for station/object K4IR. If no packets are shown the sender has not sent any weather packets the latest 10 day(s).
| Time | Temp. | Humidity | Pressure | Rain* | Wind** | Luminosity | Snow |
|---|---|---|---|---|---|---|---|
| 1777660170 | 17.78° C | 73% | 1013.8 hPa | 0 mm | - | 192 W/m² | - |
| 1777659569 | 17.22° C | 74% | 1013.8 hPa | 0 mm | - | 178 W/m² | - |
| 1777658969 | 17.22° C | 74% | 1014.1 hPa | 0 mm | - | 167 W/m² | - |
| 1777658369 | 17.22° C | 76% | 1014 hPa | 0 mm | - | 174 W/m² | - |
| 1777657768 | 17.22° C | 75% | 1014.1 hPa | 0 mm | - | 132 W/m² | - |
| 1777657164 | 17.22° C | 75% | 1014.2 hPa | 0 mm | - | 181 W/m² | - |
| 1777656562 | 17.22° C | 75% | 1013.9 hPa | 0 mm | - | 169 W/m² | - |
| 1777655960 | 17.78° C | 74% | 1013.8 hPa | 0 mm | - | 195 W/m² | - |
| 1777655358 | 17.78° C | 75% | 1014.1 hPa | 0 mm | - | 180 W/m² | - |
| 1777654753 | 17.78° C | 75% | 1014.4 hPa | 0 mm | - | 222 W/m² | - |
| 1777654148 | 17.78° C | 74% | 1014.1 hPa | 0 mm | - | 213 W/m² | - |
| 1777653548 | 17.78° C | 75% | 1014.4 hPa | 0 mm | - | 228 W/m² | - |
| 1777652946 | 17.78° C | 75% | 1014.4 hPa | 0 mm | - | 204 W/m² | - |
| 1777652346 | 17.78° C | 76% | 1014.3 hPa | 0 mm | - | 208 W/m² | - |
| 1777651745 | 17.78° C | 76% | 1014.6 hPa | 0 mm | - | 209 W/m² | - |
| 1777651139 | 17.78° C | 78% | 1014.8 hPa | 0 mm | - | 182 W/m² | - |
| 1777650538 | 17.78° C | 79% | 1015 hPa | 0 mm | - | 239 W/m² | - |
| 1777649938 | 17.78° C | 77% | 1014.9 hPa | 0 mm | - | 167 W/m² | - |
| 1777649337 | 17.78° C | 78% | 1015.2 hPa | 0 mm | - | 167 W/m² | - |
| 1777648733 | 17.78° C | 78% | 1015 hPa | 0 mm | - | 188 W/m² | - |
| 1777648130 | 17.22° C | 78% | 1014.8 hPa | 0 mm | - | 232 W/m² | - |
| 1777647529 | 17.22° C | 79% | 1014.8 hPa | 0 mm | - | 212 W/m² | - |
| 1777646929 | 17.78° C | 78% | 1014.7 hPa | 0 mm | - | 274 W/m² | - |
| 1777646327 | 17.22° C | 79% | 1014.5 hPa | 0 mm | - | 280 W/m² | - |
| 1777645726 | 16.67° C | 79% | 1014.3 hPa | 0 mm | - | 175 W/m² | - |
* Rain latest hour (hover to see other rain measurements)
** Current wind speed in m/s (hover to see current wind gust speed)